Weather History for Cross City, FL

Change the Weather History Date:

Saturday, December 22, 2012

  Actual Average Record
Temperature  
Mean Temperature 47 °F 53 °F  
Max Temperature 62 °F 65 °F 82 °F (1998)
Min Temperature 31 °F 41 °F 27 °F (2005)
Degree Days  
Heating Degree Days 18 12  
Month to date heating degree days 97 223  
Since 1 July heating degree days 305 391  
Cooling Degree Days 0 0  
Month to date cooling degree days 11 14  
Year to date cooling degree days 2808 2616  
Moisture  
Dew Point 23 °F    
Average Humidity 49    
Maximum Humidity 92    
Minimum Humidity 21    
Precipitation  
Precipitation 0.00 in 0.07 in 1.03 in (2006)
Month to date precipitation 1.78 1.89  
Year to date precipitation 59.47 47.73  
Sea Level Pressure  
Sea Level Pressure 30.27 in    
Wind  
Wind Speed 4 mph (NW)    
Max Wind Speed 13 mph    
Max Gust Speed 16 mph    
T = Trace of Precipitation, MM = Missing Value Source: NWS Daily Summary

Daily Weather History Graph

Daily Weather History Graph

Search for Another Location

Airport:

Trip Planner

Search our weather history database for the weather conditions in past years. The results will help you decide how hot, cold, wet, or windy it might be!

Date:

Astronomy

Dec. 22, 2012 Rise Set
Actual Time 7:24 AM EST 5:38 PM EST
Civil Twilight 6:57 AM EST 6:04 PM EST
Nautical Twilight 6:27 AM EST 6:34 PM EST
Astronomical Twilight 5:58 AM EST 7:03 PM EST
Moon 1:43 PM EST (12/22) 2:21 AM EST (12/22)
Length of Visible Light 11h 07m
Length of Day
10h 14m
Waxing Gibbous, 73% of the Moon is Illuminated
Dec 22
Waxing Gibbous
Dec 28
Full
Jan 4
Last Quarter
Jan 11
New
Jan 18
First Quarter

Hourly Weather History & Observations

Time (EST) Temp. Windchill Dew Point Humidity Pressure Visibility Wind Dir Wind Speed Gust Speed Precip Events Conditions
12:53 AM 41.0 °F 36.4 °F 19.0 °F 41% 30.25 in - NW 6.9 mph - N/A   Unknown
1:53 AM 39.0 °F 34.8 °F 19.0 °F 45% 30.25 in - NW 5.8 mph - N/A   Unknown
2:53 AM 37.0 °F 33.3 °F 19.0 °F 48% 30.25 in - NW 4.6 mph - N/A   Unknown
3:53 AM 34.0 °F 28.8 °F 19.9 °F 56% 30.25 in - WNW 5.8 mph - N/A   Unknown
4:53 AM 35.1 °F 30.1 °F 19.0 °F 52% 30.24 in - NW 5.8 mph - N/A   Unknown
5:53 AM 32.0 °F 27.5 °F 19.0 °F 59% 30.26 in - WNW 4.6 mph - N/A   Unknown
6:53 AM 32.0 °F 25.6 °F 19.9 °F 61% 30.28 in - NW 6.9 mph - N/A   Unknown
7:53 AM 34.0 °F 28.0 °F 19.0 °F 54% 30.30 in - NW 6.9 mph - N/A   Unknown
8:53 AM 39.0 °F 33.4 °F 19.9 °F 46% 30.33 in - NW 8.1 mph - N/A   Unknown
9:53 AM 44.1 °F 40.1 °F 19.9 °F 38% 30.35 in - Variable 6.9 mph - N/A   Unknown
10:53 AM 48.0 °F - 18.0 °F 30% 30.34 in - North 8.1 mph - N/A   Unknown
11:53 AM 53.1 °F - 19.0 °F 26% 30.31 in - NW 4.6 mph - N/A   Unknown
12:53 PM 55.9 °F - 19.0 °F 24% 30.28 in - WNW 4.6 mph - N/A   Unknown
1:53 PM 59.0 °F - 19.9 °F 22% 30.25 in - NW 8.1 mph - N/A   Unknown
2:53 PM 60.1 °F - 21.0 °F 22% 30.24 in - WNW 4.6 mph - N/A   Unknown
3:53 PM 61.0 °F - 21.0 °F 21% 30.23 in - NNW 4.6 mph - N/A   Unknown
4:53 PM 60.1 °F - 21.9 °F 23% 30.24 in - NNW 3.5 mph - N/A   Unknown
5:53 PM 48.0 °F - 33.1 °F 56% 30.24 in - West 4.6 mph - N/A   Unknown
6:53 PM 44.1 °F - 34.0 °F 68% 30.25 in - Calm Calm - N/A   Unknown
7:53 PM 39.0 °F - 32.0 °F 76% 30.27 in - Calm Calm - N/A   Unknown
8:53 PM 36.0 °F - 32.0 °F 86% 30.27 in - Calm Calm - N/A   Unknown
9:53 PM 33.1 °F - 30.0 °F 89% 30.27 in - Calm Calm - N/A   Unknown
10:53 PM 32.0 °F - 30.0 °F 92% 30.27 in - Calm Calm - N/A   Unknown
11:53 PM 30.9 °F - 28.9 °F 92% 30.26 in - Calm Calm - N/A   Unknown